Other Surface Observations
Issued by NWS Upton, NY

Current Version | Previous Version | Text Only | Print | Product List | Glossary Off
Versions: 1 2 3 4 5 6 7 8 9 10 11 12 13 14 15 16 17 18 19 20 21 22 23 24 25 26 27 28 29 30 31 32 33 34 35 36 37 38 39 40 41 42 43 44 45 46 47 48 49 50
000 SXUS51 KOKX 021457 OSOOKX NEW YORK CITY METROPOLITAN WEATHER ROUNDUP NATIONAL WEATHER SERVICE NEW YORK NY 1000 AM EST MON MAR 02 2015 CITY SKY/WX TMP DP RH WIND PRES REMARKS CENTRAL PARK PTSUNNY 35 21 56 W9G22 30.14R WCI 28 LAGUARDIA APRT PTSUNNY 34 23 64 NW24G30 30.12R WCI 21 KENNEDY INTL CLOUDY 35 23 61 NW25 30.13R WCI 23 NEWARK/LIBERTY PTSUNNY 35 24 64 NW22G29 30.14R WCI 23 TETERBORO APRT PTSUNNY 34 21 59 NW15G22 30.12R WCI 24 BNX BOT. GARD. N/A N/A N/A N/A W10 30.12S >>>>>>>>>>>>>>>>>>>>>>>>>>>>>>>>> KEY <<<<<<<<<<<<<<<<<<<<<<<<<<<<<<< > SKY/WX - SKY CONDITION/ : R : WCI - WIND CHILL INDEX < > PRESENT WEATHER : E : VSB - VISIBILITY IN MILES < > TMP - TEMPERATURE IN DEG F : M : HX - HEAT INDEX < > DP - DEW POINT TEMPERATURE : A : TC - TEMPERATURE IN < > RH - RELATIVE HUMIDITY : R : CELSIUS < > WIND - DIRECTION/SPEED (MPH) : K : VRB - VARIABLE WIND DIR < > PRES - PRESSURE (IN HG) : S : < >>>>>>>>>>>>>>>>>>>>>>>>>>>>>>>>> KEY <<<<<<<<<<<<<<<<<<<<<<<<<<<<<<<

USA.gov is the U.S. government's official web portal to all federal, state and local government web resources and services.